ARA228 GOBD-GABS

Flight info

Callsign ARA228
Flight time N/A
Altitude 37000
Route NURAS1B NURAS DCT SISNU UA601 PINVO DCT BIDOK BIDOK5D
Aircraft B737/M-SDE2E3FGHIRWXY/LB1

Departure

Time N/A
Airport Blaise Diagne International Airport (GOBD)

Arrival

Time 2026-05-07 17:38
Airport Modibo Keita International Airport (GABS)
Time Latitude Longitude Altitude Speed Heading
2026-05-07 17:28 12.77187 -8.00898 9964 ft 278 kts 96°
2026-05-07 17:29 12.76970 -7.98928 9617 ft 278 kts 96°
2026-05-07 17:29 12.76763 -7.96985 9259 ft 277 kts 96°
2026-05-07 17:29 12.76559 -7.95025 8921 ft 276 kts 96°
2026-05-07 17:29 12.76360 -7.93071 8573 ft 275 kts 96°
2026-05-07 17:30 12.76164 -7.91127 8238 ft 274 kts 96°
2026-05-07 17:30 12.75970 -7.89194 7913 ft 272 kts 96°
2026-05-07 17:30 12.75777 -7.87265 7580 ft 272 kts 96°
2026-05-07 17:30 12.75585 -7.85340 7255 ft 271 kts 96°
2026-05-07 17:31 12.75394 -7.83421 6925 ft 270 kts 96°
2026-05-07 17:31 12.75205 -7.81512 6611 ft 269 kts 96°
2026-05-07 17:31 12.75014 -7.79607 6255 ft 269 kts 97°
2026-05-07 17:31 12.74515 -7.77786 5904 ft 266 kts 121°
2026-05-07 17:32 12.73276 -7.76416 5642 ft 262 kts 146°
2026-05-07 17:32 12.72255 -7.75860 5529 ft 257 kts 160°
2026-05-07 17:32 12.70447 -7.75358 5410 ft 247 kts 166°
2026-05-07 17:32 12.68798 -7.74962 5283 ft 239 kts 169°
2026-05-07 17:33 12.67170 -7.75039 5107 ft 235 kts 197°
2026-05-07 17:33 12.65788 -7.75863 4875 ft 235 kts 222°
2026-05-07 17:33 12.64764 -7.77158 4659 ft 233 kts 234°
2026-05-07 17:33 12.63892 -7.78541 4361 ft 230 kts 236°
2026-05-07 17:34 12.63041 -7.79911 4087 ft 225 kts 235°
2026-05-07 17:34 12.62214 -7.81219 3828 ft 213 kts 234°
2026-05-07 17:34 12.61419 -7.82449 3573 ft 202 kts 234°
2026-05-07 17:34 12.60672 -7.83631 3333 ft 196 kts 235°
2026-05-07 17:35 12.59930 -7.84796 3085 ft 193 kts 234°
2026-05-07 17:35 12.59194 -7.85893 2845 ft 180 kts 232°
2026-05-07 17:35 12.58503 -7.86930 2703 ft 170 kts 235°
2026-05-07 17:35 12.57875 -7.87985 2602 ft 178 kts 232°
2026-05-07 17:36 12.57238 -7.88973 2464 ft 158 kts 235°
2026-05-07 17:36 12.56681 -7.89947 2118 ft 162 kts 236°
2026-05-07 17:36 12.56143 -7.90916 2011 ft 152 kts 235°
2026-05-07 17:36 12.55479 -7.91821 1728 ft 161 kts 229°
2026-05-07 17:37 12.54827 -7.92710 1464 ft 150 kts 236°
2026-05-07 17:37 12.54268 -7.93596 1291 ft 149 kts 234°
2026-05-07 17:37 12.53724 -7.94423 1249 ft 119 kts 236°
2026-05-07 17:37 12.53393 -7.94953 1249 ft 63 kts 244°
2026-05-07 17:38 12.53323 -7.95048 1248 ft 3 kts 142°
2026-05-07 17:38 12.53325 -7.95024 1241 ft 6 kts 54°
2026-05-07 17:38 12.53403 -7.94919 1246 ft 32 kts 55°
2026-05-07 17:38 12.53568 -7.94666 1253 ft 48 kts 57°
2026-05-07 17:39 12.53742 -7.94394 1254 ft 40 kts 56°
2026-05-07 17:39 12.53926 -7.94419 1255 ft 29 kts 327°
2026-05-07 17:39 12.54025 -7.94539 1257 ft 9 kts 304°
2026-05-07 17:39 12.54050 -7.94553 1257 ft 0 kts 336°